Regional Weather Roundup
Issued by NWS Albany, NY

Home | Current Version | Previous Version | Graphics & Text | Print | Product List | Glossary Off
Versions: 1 2 3 4 5 6 7 8 9 10 11 12 13 14 15 16 17 18 19 20 21 22 23 24 25 26 27 28 29 30 31 32 33 34 35 36 37 38 39 40 41 42 43 44 45 46 47 48 49 50

000
ASUS41 KALY 271910
RWRALY

NEW YORK STATE HOURLY WEATHER ROUNDUP
NATIONAL WEATHER SERVICE ALBANY NY
300 PM EDT MON JUL 27 2015

NOTE: "FAIR" INDICATES FEW OR NO CLOUDS BELOW 12,000 FEET WITH NO
SIGNIFICANT WEATHER AND/OR NO OBSTRUCTIONS TO VISIBILITY.

NYZ032-033-038>043-046>054-057>066-NYZ062>081-272000-
EAST


CITY           SKY/WX    TMP DP  RH WIND       PRES   REMARKS
ALBANY         MOSUNNY   87  65  47 SW7       29.97F
GLENS FALLS    SUNNY     84  65  52 SE8       29.96F
POUGHKEEPSIE   PTSUNNY   86  67  52 SW7       29.97F
MONTGOMERY     MOSUNNY   87  69  54 W8        29.99S HX  91
WHITE PLAINS   MOSUNNY   82  68  62 S8        30.00F
ISLIP          PTSUNNY   80  68  66 S12       30.01S
NEW YORK CITY  MOSUNNY   85  66  53 S14       29.99F
CENTRAL PARK   MOSUNNY   84  68  58 VRB5      30.02F
$$

NYZ005>009-017-018-044>046-055-056-272000-
CENTRAL


CITY           SKY/WX    TMP DP  RH WIND       PRES   REMARKS
FULTON         SUNNY     86  62  44 NW7       30.00F
SYRACUSE       MOSUNNY   87  65  47 N8        29.99S
ROME           MOSUNNY   85  65  51 SW8       30.00F
ELMIRA         MOSUNNY   85  62  46 N6        30.00F
BINGHAMTON     SUNNY     82  59  45 NE3       30.05F
MONTICELLO     MOSUNNY   79  68  69 SW8       30.06S
$$

NYZ026>034-041>043-272000-
NORTH


CITY           SKY/WX    TMP DP  RH WIND       PRES   REMARKS
WATERTOWN      SUNNY     83  63  50 W10       29.99S
FORT DRUM      NOT AVBL
MASSENA        SUNNY     86  66  51 SW9       29.95F
SARANAC LAKE   TSTM      69  62  78 VRB6G31   30.02S VSB 3/4
PLATTSBURGH    MOSUNNY   78  67  68 SE8       29.94F
$$

NYZ001>004-010>016-019>021-272000-
WEST


CITY           SKY/WX    TMP DP  RH WIND       PRES   REMARKS
NIAGARA FALLS  MOSUNNY   88  61  40 NW7       30.00S
BUFFALO        MOSUNNY   87  59  38 NW7       30.01F
DUNKIRK        SUNNY     82  66  58 N10       30.02F
JAMESTOWN      SUNNY     81  55  41 NE9       30.07F
WELLSVILLE     MOSUNNY   84  54  35 VRB6      30.10S
ROCHESTER      MOSUNNY   86  61  42 VRB7      30.01S
PENN YAN       SUNNY     83  60  45 VRB5      30.03F
$$

             KEY
       WCI = WIND CHILL INDEX
       VSB = VISIBILITY
       HX  = HEAT INDEX
$$


USA.gov is the U.S. government's official web portal to all federal, state and local government web resources and services.